Regional Weather Roundup
Issued by NWS

Home | Current Version | Previous Version | Graphics & Text | Print | Product List | Glossary On
Versions: 1 2 3 4 5 6 7 8 9 10 11 12 13 14 15 16 17 18 19 20 21 22 23 24 25 26 27 28 29 30 31 32 33 34 35 36 37 38 39 40 41 42 43 44 45 46 47 48 49 50
000
ASUS43 KLOT 070800
RWRIL

ILLINOIS REGIONAL WEATHER ROUNDUP
NATIONAL WEATHER SERVICE CHICAGO/ROMEOVILLE IL
300 AM CDT TUE JUL 07 2015

NOTE: "FAIR" INDICATES FEW OR NO CLOUDS BELOW 12,000 FEET WITH NO
SIGNIFICANT WEATHER AND/OR OBSTRUCTIONS TO VISIBILITY.

* THESE STATIONS ARE NOT UNDER NWS QUALITY CONTROL. THEY ALSO MAY NOT
  REPORT WEATHER SUCH AS PRECIPITATION OR FOG.

ILZ001-002-007-009-015-016-024-070900-
NORTHWEST ILLINOIS

CITY           SKY/WX    TMP DP  RH WIND       PRES   REMARKS
MOLINE         CLOUDY    65  59  81 N8        29.90R HAZE
STERLING*      CLOUDY    64  63  94 N7        29.89R
$$

ILZ003-004-008-010-011-017-018-070900-
NORTH CENTRAL ILLINOIS

CITY           SKY/WX    TMP DP  RH WIND       PRES   REMARKS
ROCKFORD       CLOUDY    64  60  87 N15G25    29.89R FOG
$$

ILZ005-006-012>014-019>023-070900-
NORTHEAST ILLINOIS

CITY           SKY/WX    TMP DP  RH WIND       PRES   REMARKS
CHICAGO-OHARE  CLOUDY    71  68  90 SW7       29.83S
CHICAGO-MIDWAY CLOUDY    74  69  85 SW5       29.84F
AURORA         CLOUDY    71  68  90 SW6       29.85S
WAUKEGAN       CLOUDY    68  66  93 VRB7G17   29.85R
DUPAGE AIRPORT CLOUDY    71  68  90 SW7       29.84S
WHEELING       CLOUDY    72  68  87 W6        29.85R
NORTHERLY ISL    N/A     72  68  87 S3          N/A
$$

LMZ740>746-070900-
SOUTHERN LAKE MICHIGAN

STATION/POSITION SKY/WX   TEMP    WIND        PRES    VSBY  WAVE
                          AIR SEA DIR/SP/G                  HT/PER
                          (F)     (DEG/KT/KT) (MB)    (MI)  (FT/S)
HARRISON CRIB              71     190/ 13/ 14   N/A
BURNHAM HARBOR             72     210/  4/  8   N/A
CALUMET HARBOR             72     180/  4/  6   N/A
BURNS HARBOR               71     250/  7/ 10 1011.9R
MICHIGAN CITY              69     240/  4/  7   N/A
MICHIGAN CITY 6N           69 68  300/  6/  8   N/A           1/ 2
ST. JOSEPH                 68 66  300/  4/  6   N/A           1/ 3
$$

ILZ025>027-034>036-040-047-049-050-058-095>099-070900-
WEST-CENTRAL ILLINOIS

CITY           SKY/WX    TMP DP  RH WIND       PRES   REMARKS
QUINCY         LGT RAIN  73  71  93 NW6       29.89R
$$

ILZ028>032-037-038-041>044-048-051>054-059>061-070900-
CENTRAL ILLINOIS

CITY           SKY/WX    TMP DP  RH WIND       PRES   REMARKS
DECATUR        CLOUDY    77  73  87 S12       29.87F
PEORIA         CLOUDY    73  70  90 SW3       29.87R
SPRINGFIELD    LGT RAIN  74  72  93 S6        29.87F
TAYLORVILLE    NOT AVBL
$$

ILZ033-039-045-046-055>057-062-063-070900-
EAST-CENTRAL ILLINOIS

CITY           SKY/WX    TMP DP  RH WIND       PRES   REMARKS
CHAMPAIGN      CLOUDY    75  73  93 S10       29.88F
MATTOON        CLOUDY    75  73  93 S9        29.89F
$$

ILZ079-100>102-070900-
SOUTHWEST ILLINOIS

CITY           SKY/WX    TMP DP  RH WIND       PRES   REMARKS
BELLEVILLE     CLOUDY    78  77  99 S8        29.89S
CAHOKIA*       CLOUDY    80  73  79 S8        29.88S HX  84
$$

ILZ064>066-069>071-074>076-080>082-084>086-088>090-092>094-070900-
SOUTH-CENTRAL ILLINOIS

CITY           SKY/WX    TMP DP  RH WIND       PRES   REMARKS
CARBONDALE     CLOUDY    77  71  82 SW13      29.94S
MT. VERNON     MOCLDY    77  70  78 SW14      29.93F
$$

ILZ067-068-072-073-078-083-087-091-070900-
SOUTHEAST ILLINOIS

CITY           SKY/WX    TMP DP  RH WIND       PRES   REMARKS
LAWRENCEVILLE  MOCLDY    76  73  91 S10       29.94S
$$

ABBREVIATIONS USED IN REMARKS
   TC - TEMPERATURE IN CELSIUS
  WCI - WIND CHILL INDEX
   HX - HEAT INDEX
  VSB - VISIBILITY
$$




USA.gov is the U.S. government's official web portal to all federal, state and local government web resources and services.